Simultaneous Nadir Overpasses (SNOs) Predictions

Prediction of SNOs between GOES-16 and METOP-B Satellite Orbit:

Table of predicted SNOs for the next 14.0 days since TLE Epoch: 7/29/2023
Index Date Time (GOES-16) GOES-16 Lat,Lon METOP-B Lat,Lon Distance(km) Time Diff (sec)
1 07/30/2023 02:11:28 -0.01, -75.20 0.94, -71.07 471.95 80
2 07/31/2023 14:30:19 0.00, -75.21 0.10, -75.63 47.45 80
3 08/03/2023 02:31:20 -0.00, -75.22 -0.01, -75.24 2.27 80
4 08/05/2023 14:26:53 -0.00, -75.25 -0.12, -74.82 49.77 80
5 08/07/2023 02:48:32 -0.00, -75.26 -0.95, -79.41 472.91 80
6 08/08/2023 02:25:14 -0.00, -75.27 0.22, -74.43 97.55 80
7 08/09/2023 14:44:05 -0.00, -75.30 0.82, -78.99 419.67 80
8 08/10/2023 14:26:05 -0.00, -75.32 -0.29, -73.99 150.96 80
